Showing default

KUIPER-00024, 63738

Orbit data source: Space-Track

KUIPER-00024, 63738 is a payload satellite owned by Kuiper Systems (US) in LEO that was launched on Mon, 28 Apr 2025 UTC via an ATLAS V 551 launch vehicle from the Air Force Eastern Test Range (AFETR). Payload-class satellites include a variety of spacecraft equipped with specific instruments for various scientific and technological missions. These include communications satellites like Starlink; space stations such as the ISS; scientific satellites like the Hubble; Earth observation satellites from companies like Planet Labs, Umbra, and HawkEye 360; GPS; miniature CubeSats for education and research; and military/defense satellites.

Loading next visibility...
Identifier
63738, 2025-088Q
Orbit
LEO
Country
Flag of USUS
Related business
Manufacturer
Kuiper Systems
Mission
Operational Commercial Communications
Bus & Motor
KUIPER, Unknown motor
Mass
~490 kg wet, ~490 kg dry
Launch date (UTC)
2025-04-28 (8 months ago)
Launch vehicle
ATLAS V 551
Launch site
Air Force Eastern Test Range (AFETR)
Object type
Payload
Rocket body
Debris
Shape & HBR
Box + 2 Pan, 3.4 m
Radar Cross Section
2.326 m², Large (>1 m²)

Expand to show TLE details & history
Last TLE update: 1 day ago

TLE from 1 day ago
0 KUIPER-00024
1 63738U 25088Q   25348.50324788  .00002856  00000-0  40514-3 0  9997
2 63738  51.9020 109.7348 0004778 163.6019 196.5098 14.79756921 35445
Epoch: 2025-12-14T12:04Z
TLE epoch observation values (Epoch: 2025-12-14T12:04:40.616Z)
Latitude
-0.00009°
Longitude
-154.84973°
Altitude
634.049 km
Speed
7.541 km/s
True Right ascension
07h 18m 56s
True Declination
0° 00' 00"
Sunlit
Object was in full shadow at epoch
Visualization orbit readout
Latitude
Unknown
Longitude
Unknown
Altitude
Unknown
Speed
Unknown
Apparent Right ascension
Unknown
Apparent Declination
Unknown
Sunlit
N/A
Visualization observer readout
Local Sidereal Time
13:19:51
Azimuth
Unknown
Elevation
Unknown
Doppler factor
Unknown
Orbital elements
Apogee altitude
633.891 km
Perigee altitude
627.194 km
Semi-major axis
7,008.679 km
Eccentricity
0.00048
Inclination
51.902°
RAAN
109.7348°
Arg. of periapsis
163.6019°
True anomaly
196.49425°
Mean anomaly
196.5098°
Eccentric anomaly
196.50202°
Mean motion
3.69904 °/min
Orbital period
97.32 mins
BSTAR
0.00040514
Loading maneuver chart data...
Computing Atmospheric mass density...
Loading historical data...
Loading historical data...
Loading historical data...
Loading historical data...
Loading historical data...
Loading historical data...
Loading historical data...

Documentation

Showing up to 5 results
|